Pueblo, CO

5:04 AM MDT on September 30, 2016 (GMT -0600)
Pueblo Memorial

Weather History for KPUB - March, 2014

Change the Weather History Date:

Saturday, March 8, 2014

  Actual Average Record
Temperature  
Mean Temperature 42 °F 40 °F  
Max Temperature 52 °F 57 °F 75 °F (1955)
Min Temperature 32 °F 23 °F 2 °F (1964)
Degree Days  
Heating Degree Days 23 25  
Month to date heating degree days 230 207  
Since 1 July heating degree days 4435 4510  
Cooling Degree Days 0 0  
Month to date cooling degree days 0 0  
Year to date cooling degree days 0 0  
Moisture  
Dew Point 31 °F    
Average Humidity 68    
Maximum Humidity 100    
Minimum Humidity 36    
Precipitation  
Precipitation 0.01 in 0.02 in 0.47 in (2006)
Month to date precipitation 0.64 0.19  
Year to date precipitation 1.37 0.84  
Snow  
Snow T in 0.10 in 6.00 in (1994)
Month to date snowfall 1.0 1.2  
Since 1 July snowfall 19.6 23.0  
Snow Depth 0.00 in    
Sea Level Pressure  
Sea Level Pressure 30.27 in    
Wind  
Wind Speed 7 mph (West)    
Max Wind Speed 15 mph    
Max Gust Speed 21 mph    
Visibility 10 miles    
Events Rain    
T = Trace of Precipitation, MM = Missing Value Source: NWS Daily Summary

Daily Weather History Graph

Daily Weather History Graph

Search for Another Location

Airport or City:

Trip Planner

Search our weather history database for the weather conditions in past years. The results will help you decide how hot, cold, wet, or windy it might be!

Date:

Astronomy

Mar. 08, 2014 Rise Set
Actual Time 6:19 AM MST 5:58 PM MST
Civil Twilight 5:53 AM MST 6:24 PM MST
Nautical Twilight 5:22 AM MST 6:55 PM MST
Astronomical Twilight 4:52 AM MST 7:26 PM MST
Moon 11:08 AM MST (3/8) 12:53 AM MST (3/8)
Length of Visible Light 12h 31m
Length of Day
11h 38m
First Quarter, 52% of the Moon is Illuminated
Mar 8
First Quarter
Mar 16
Full
Mar 23
Last Quarter
Mar 30
New
Apr 7
First Quarter

Hourly Weather History & Observations

Time (MST) Temp. Windchill Dew Point Humidity Pressure Visibility Wind Dir Wind Speed Gust Speed Precip Events Conditions
12:53 AM 35.1 °F 30.1 °F 34.0 °F 96% 30.16 in 10.0 mi WNW 5.8 mph - 0.01 in Rain Light Rain
1:08 AM 34.0 °F 28.0 °F 34.0 °F 100% 30.19 in 10.0 mi West 6.9 mph - 0.01 in Rain Light Rain
1:15 AM 34.0 °F 28.0 °F 34.0 °F 100% 30.18 in 10.0 mi West 6.9 mph - 0.01 in Rain Light Rain
1:53 AM 34.0 °F 28.0 °F 34.0 °F 100% 30.16 in 10.0 mi WNW 6.9 mph - 0.01 in   Overcast
2:53 AM 35.1 °F 28.6 °F 34.0 °F 96% 30.16 in 10.0 mi WNW 8.1 mph - N/A   Overcast
3:53 AM 35.1 °F 28.6 °F 34.0 °F 96% 30.19 in 10.0 mi WNW 8.1 mph - N/A   Overcast
4:53 AM 35.1 °F 29.3 °F 34.0 °F 96% 30.23 in 10.0 mi WNW 6.9 mph - N/A   Overcast
5:53 AM 35.1 °F 29.3 °F 34.0 °F 96% 30.27 in 10.0 mi West 6.9 mph - N/A   Overcast
6:53 AM 33.1 °F 27.7 °F 32.0 °F 96% 30.30 in 10.0 mi West 5.8 mph - N/A   Partly Cloudy
7:53 AM 37.0 °F 30.4 °F 33.1 °F 86% 30.31 in 10.0 mi West 9.2 mph - N/A   Clear
8:53 AM 41.0 °F 37.1 °F 35.1 °F 79% 30.31 in 10.0 mi WNW 5.8 mph - N/A   Clear
9:53 AM 43.0 °F 39.5 °F 34.0 °F 71% 30.32 in 10.0 mi West 5.8 mph - N/A   Clear
10:53 AM 46.9 °F - 34.0 °F 61% 30.31 in 10.0 mi West 4.6 mph - N/A   Clear
11:53 AM 48.9 °F - 28.9 °F 46% 30.30 in 10.0 mi NNE 11.5 mph - N/A   Mostly Cloudy
12:53 PM 50.0 °F - 28.0 °F 43% 30.28 in 10.0 mi NE 9.2 mph - N/A   Mostly Cloudy
1:53 PM 50.0 °F - 24.1 °F 36% 30.27 in 10.0 mi North - - N/A   Partly Cloudy
2:53 PM 50.0 °F - 26.1 °F 39% 30.27 in 10.0 mi NNE 8.1 mph - N/A   Mostly Cloudy
3:53 PM 50.0 °F - 24.1 °F 36% 30.26 in 10.0 mi SE 3.5 mph - N/A   Overcast
4:53 PM 48.9 °F - 28.9 °F 46% 30.27 in 10.0 mi SSW 8.1 mph - N/A   Clear
5:53 PM 45.0 °F 40.1 °F 30.9 °F 58% 30.30 in 10.0 mi SW 9.2 mph - N/A   Clear
6:53 PM 42.1 °F 39.2 °F 30.0 °F 62% 30.32 in 10.0 mi WSW 4.6 mph - N/A   Clear
7:53 PM 39.0 °F 34.8 °F 30.9 °F 73% 30.33 in 10.0 mi West 5.8 mph - N/A   Clear
8:53 PM 37.0 °F 31.6 °F 28.9 °F 73% 30.32 in 10.0 mi WSW 6.9 mph - N/A   Clear
9:53 PM 34.0 °F 29.8 °F 30.0 °F 85% 30.34 in 10.0 mi SW 4.6 mph - N/A   Clear
10:53 PM 32.0 °F 25.6 °F 30.0 °F 92% 30.32 in 10.0 mi West 6.9 mph - N/A   Clear
11:53 PM 33.1 °F 27.7 °F 28.9 °F 85% 30.31 in 10.0 mi West 5.8 mph - N/A   Clear